TimeEDT,TemperatureF,Dew PointF,Humidity,Sea Level PressureIn,VisibilityMPH,Wind Direction,Wind SpeedMPH,Gust SpeedMPH,PrecipitationIn,Events,Conditions,WindDirDegrees,DateUTC
12:15 AM,64.4,62.6,94,29.81,7.0,Calm,Calm,-,N/A,,Scattered Clouds,0,2013-05-24 04:15:00
12:35 AM,62.6,62.6,100,29.81,4.0,Calm,Calm,-,N/A,,Mostly Cloudy,0,2013-05-24 04:35:00
12:55 AM,62.6,62.6,100,29.80,5.0,Calm,Calm,-,N/A,,Mostly Cloudy,0,2013-05-24 04:55:00
1:15 AM,62.6,60.8,94,29.80,0.5,Calm,Calm,-,N/A,Fog,Fog,0,2013-05-24 05:15:00
1:35 AM,62.6,62.6,100,29.79,0.2,Calm,Calm,-,N/A,Fog,Fog,0,2013-05-24 05:35:00
1:55 AM,62.6,60.8,94,29.80,1.0,Calm,Calm,-,N/A,,Overcast,0,2013-05-24 05:55:00
2:15 AM,62.6,62.6,100,29.79,3.0,Calm,Calm,-,N/A,,Scattered Clouds,0,2013-05-24 06:15:00
2:35 AM,62.6,62.6,100,29.79,10.0,Calm,Calm,-,N/A,,Scattered Clouds,0,2013-05-24 06:35:00
2:55 AM,62.6,62.6,100,29.78,10.0,Calm,Calm,-,N/A,,Scattered Clouds,0,2013-05-24 06:55:00
3:15 AM,62.6,62.6,100,29.77,7.0,Calm,Calm,-,N/A,,Clear,0,2013-05-24 07:15:00
3:35 AM,62.6,62.6,100,29.78,7.0,Calm,Calm,-,N/A,,Scattered Clouds,0,2013-05-24 07:35:00
3:55 AM,62.6,62.6,100,29.77,7.0,Calm,Calm,-,N/A,,Mostly Cloudy,0,2013-05-24 07:55:00
4:15 AM,62.6,62.6,100,29.78,10.0,Calm,Calm,-,N/A,,Mostly Cloudy,0,2013-05-24 08:15:00
4:35 AM,62.6,62.6,100,29.78,10.0,Calm,Calm,-,N/A,,Overcast,0,2013-05-24 08:35:00
4:55 AM,62.6,60.8,94,29.78,10.0,Calm,Calm,-,N/A,,Overcast,0,2013-05-24 08:55:00
5:15 AM,62.6,60.8,94,29.78,10.0,Calm,Calm,-,N/A,,Overcast,0,2013-05-24 09:15:00
5:35 AM,62.6,60.8,94,29.79,10.0,WSW,3.5,-,N/A,,Overcast,240,2013-05-24 09:35:00
5:55 AM,62.6,60.8,94,29.80,10.0,WSW,3.5,-,N/A,,Overcast,250,2013-05-24 09:55:00
6:15 AM,62.6,60.8,94,29.80,10.0,West,3.5,-,N/A,,Overcast,260,2013-05-24 10:15:00
6:35 AM,62.6,60.8,94,29.81,10.0,West,4.6,-,N/A,,Overcast,260,2013-05-24 10:35:00
6:55 AM,64.4,60.8,88,29.82,10.0,West,3.5,-,N/A,,Overcast,260,2013-05-24 10:55:00
7:15 AM,64.4,60.8,88,29.83,10.0,West,5.8,-,N/A,Rain,Rain,270,2013-05-24 11:15:00
7:35 AM,64.4,62.6,94,29.84,10.0,West,5.8,-,0.01,,Drizzle,270,2013-05-24 11:35:00
7:55 AM,64.4,60.8,88,29.85,10.0,WNW,6.9,-,0.01,,Overcast,290,2013-05-24 11:55:00
8:15 AM,64.4,60.8,88,29.86,10.0,NNW,4.6,-,0.01,Rain,Rain,340,2013-05-24 12:15:00
8:35 AM,60.8,57.2,88,29.88,10.0,NNW,12.7,27.6,0.03,Rain,Light Rain,330,2013-05-24 12:35:00
8:55 AM,59.0,55.4,88,29.89,10.0,NNW,12.7,-,0.04,Rain,Rain,340,2013-05-24 12:55:00
9:15 AM,59.0,55.4,88,29.91,10.0,NNW,8.1,16.1,0.01,,Drizzle,340,2013-05-24 13:15:00
9:35 AM,59.0,55.4,88,29.91,10.0,NNW,9.2,-,0.01,,Light Drizzle,330,2013-05-24 13:35:00
9:55 AM,60.8,55.4,82,29.92,10.0,North,8.1,16.1,0.01,,Mostly Cloudy,360,2013-05-24 13:55:00
10:15 AM,60.8,53.6,77,29.93,10.0,NNW,8.1,-,N/A,,Overcast,330,2013-05-24 14:15:00
10:35 AM,60.8,51.8,72,29.94,10.0,NW,13.8,18.4,N/A,,Mostly Cloudy,310,2013-05-24 14:35:00
10:55 AM,62.6,48.2,59,29.94,10.0,NW,17.3,24.2,N/A,,Scattered Clouds,320,2013-05-24 14:55:00
11:15 AM,60.8,46.4,59,29.96,10.0,NNW,9.2,24.2,N/A,,Clear,330,2013-05-24 15:15:00
11:35 AM,62.6,46.4,55,29.97,10.0,NW,13.8,18.4,N/A,,Scattered Clouds,310,2013-05-24 15:35:00
11:55 AM,62.6,46.4,55,29.97,10.0,NW,11.5,20.7,N/A,,Scattered Clouds,320,2013-05-24 15:55:00
12:15 PM,60.8,46.4,59,29.97,10.0,NNW,13.8,18.4,N/A,,Clear,330,2013-05-24 16:15:00
12:35 PM,64.4,46.4,52,29.97,10.0,NNW,12.7,17.3,N/A,,Clear,340,2013-05-24 16:35:00
12:55 PM,64.4,46.4,52,29.97,10.0,NNW,9.2,-,N/A,,Mostly Cloudy,330,2013-05-24 16:55:00
1:15 PM,64.4,46.4,52,29.97,10.0,NW,13.8,18.4,N/A,,Overcast,310,2013-05-24 17:15:00
1:35 PM,66.2,46.4,49,29.97,10.0,NW,10.4,20.7,N/A,,Overcast,310,2013-05-24 17:35:00
1:55 PM,64.4,44.6,49,29.98,10.0,NW,13.8,21.9,N/A,,Mostly Cloudy,320,2013-05-24 17:55:00
2:15 PM,64.4,46.4,52,29.99,10.0,NW,15.0,23.0,N/A,,Overcast,310,2013-05-24 18:15:00
2:35 PM,64.4,44.6,49,29.99,10.0,NW,10.4,20.7,N/A,,Overcast,310,2013-05-24 18:35:00
2:55 PM,64.4,44.6,49,30.00,10.0,NW,16.1,23.0,N/A,,Overcast,310,2013-05-24 18:55:00
3:15 PM,64.4,44.6,49,30.00,10.0,NW,12.7,20.7,N/A,,Mostly Cloudy,320,2013-05-24 19:15:00
3:35 PM,64.4,44.6,49,30.01,10.0,NW,15.0,24.2,N/A,,Mostly Cloudy,320,2013-05-24 19:35:00
3:55 PM,64.4,44.6,49,30.01,10.0,NW,13.8,21.9,N/A,,Mostly Cloudy,310,2013-05-24 19:55:00
4:15 PM,62.6,42.8,48,30.02,10.0,NW,11.5,24.2,N/A,,Overcast,320,2013-05-24 20:15:00
4:35 PM,64.4,39.2,40,30.02,10.0,North,12.7,25.3,N/A,,Mostly Cloudy,350,2013-05-24 20:35:00
4:55 PM,64.4,39.2,40,30.03,10.0,NNW,10.4,20.7,N/A,,Clear,340,2013-05-24 20:55:00
5:15 PM,62.6,37.4,39,30.04,10.0,NNW,18.4,23.0,N/A,,Clear,340,2013-05-24 21:15:00
5:35 PM,62.6,37.4,39,30.05,10.0,NNW,15.0,26.5,N/A,,Clear,340,2013-05-24 21:35:00
5:55 PM,62.6,37.4,39,30.05,10.0,NW,16.1,24.2,N/A,,Clear,320,2013-05-24 21:55:00
6:15 PM,62.6,37.4,39,30.06,10.0,NNW,12.7,25.3,N/A,,Clear,330,2013-05-24 22:15:00
6:35 PM,60.8,35.6,39,30.06,10.0,NW,16.1,23.0,N/A,,Clear,320,2013-05-24 22:35:00
6:55 PM,60.8,37.4,42,30.06,10.0,NNW,12.7,17.3,N/A,,Clear,340,2013-05-24 22:55:00
7:15 PM,60.8,37.4,42,30.07,10.0,NNW,11.5,20.7,N/A,,Clear,330,2013-05-24 23:15:00
7:35 PM,59.0,35.6,42,30.08,10.0,NW,13.8,19.6,N/A,,Clear,320,2013-05-24 23:35:00
7:55 PM,57.2,37.4,48,30.09,10.0,NNW,5.8,-,N/A,,Clear,330,2013-05-24 23:55:00
8:15 PM,57.2,35.6,44,30.11,10.0,NNW,10.4,-,N/A,,Clear,330,2013-05-25 00:15:00
8:35 PM,55.4,35.6,47,30.11,10.0,NNW,8.1,16.1,N/A,,Clear,330,2013-05-25 00:35:00
8:55 PM,55.4,35.6,47,30.12,10.0,NW,5.8,-,N/A,,Clear,320,2013-05-25 00:55:00
9:15 PM,53.6,35.6,51,30.13,10.0,NNW,6.9,-,N/A,,Clear,330,2013-05-25 01:15:00
9:35 PM,53.6,35.6,51,30.13,10.0,NW,5.8,-,N/A,,Clear,320,2013-05-25 01:35:00
9:55 PM,51.8,35.6,54,30.15,10.0,NW,3.5,-,N/A,,Clear,310,2013-05-25 01:55:00
10:15 PM,48.2,37.4,66,30.16,10.0,NW,6.9,-,N/A,,Clear,310,2013-05-25 02:15:00
10:35 PM,50.0,37.4,62,30.16,10.0,NW,4.6,-,N/A,,Clear,320,2013-05-25 02:35:00
10:55 PM,50.0,37.4,62,30.16,10.0,Calm,Calm,-,N/A,,Clear,0,2013-05-25 02:55:00
11:15 PM,50.0,37.4,62,30.16,10.0,NW,5.8,-,N/A,,Clear,320,2013-05-25 03:15:00
11:35 PM,44.6,37.4,76,30.16,10.0,NNW,3.5,-,N/A,,Clear,330,2013-05-25 03:35:00
11:55 PM,46.4,37.4,71,30.16,10.0,Calm,Calm,-,N/A,,Clear,0,2013-05-25 03:55:00